Birmingham, AL

11:40 AM CDT on April 29, 2017 (GMT -0500)
Birmingham International

Weather History for KBHM - March, 2013

Change the Weather History Date:

Friday, March 22, 2013

  Actual Average Record
Temperature  
Mean Temperature 44 °F 57 °F  
Max Temperature 50 °F 68 °F 88 °F (1907)
Min Temperature 38 °F 45 °F 23 °F (1986)
Degree Days  
Heating Degree Days 21 9  
Month to date heating degree days 334 250  
Since 1 July heating degree days 2332 2440  
Cooling Degree Days 0 1  
Month to date cooling degree days 1 12  
Year to date cooling degree days 7 16  
Moisture  
Dew Point 38 °F    
Average Humidity 80    
Maximum Humidity 93    
Minimum Humidity 66    
Precipitation  
Precipitation 0.30 in 0.17 in 1.95 in (1908)
Month to date precipitation 1.63 3.76  
Year to date precipitation 16.22 13.13  
Snow  
Snow 0.00 in 0.10 in - ()
Month to date snowfall T 0.5  
Since 1 July snowfall 2.1 1.3  
Snow Depth 0.00 in    
Sea Level Pressure  
Sea Level Pressure 30.00 in    
Wind  
Wind Speed 6 mph (ESE)    
Max Wind Speed 14 mph    
Max Gust Speed 17 mph    
Visibility 9 miles    
Events Rain    
T = Trace of Precipitation, MM = Missing Value Source: NWS Daily Summary

Daily Weather History Graph

Daily Weather History Graph

Search for Another Location

Airport or City:

Trip Planner

Search our weather history database for the weather conditions in past years. The results will help you decide how hot, cold, wet, or windy it might be!

Date:

Astronomy

Mar. 22, 2013 Rise Set
Actual Time 6:47 AM CDT 7:00 PM CDT
Civil Twilight 6:22 AM CDT 7:25 PM CDT
Nautical Twilight 5:53 AM CDT 7:54 PM CDT
Astronomical Twilight 5:24 AM CDT 8:23 PM CDT
Moon 2:38 PM CDT (3/22) 3:35 AM CDT (3/22)
Length of Visible Light 13h 02m
Length of Day
12h 12m
Waxing Gibbous, 77% of the Moon is Illuminated
Mar 22
Waxing Gibbous
Mar 27
Full
Apr 2
Last Quarter
Apr 10
New
Apr 18
First Quarter

Hourly Weather History & Observations

Time (CDT) Temp. Windchill Dew Point Humidity Pressure Visibility Wind Dir Wind Speed Gust Speed Precip Events Conditions
12:53 AM 39.9 °F 34.5 °F 30.9 °F 70% 30.02 in 10.0 mi NNE 8.1 mph - 0.01 in   Overcast
1:53 AM 39.0 °F 34.8 °F 33.1 °F 79% 30.01 in 10.0 mi NE 5.8 mph - 0.00 in   Overcast
2:53 AM 37.9 °F 33.5 °F 33.1 °F 83% 29.99 in 10.0 mi ENE 5.8 mph - N/A   Overcast
3:53 AM 37.9 °F 34.4 °F 32.0 °F 79% 29.99 in 10.0 mi East 4.6 mph - N/A   Overcast
4:53 AM 37.9 °F 31.5 °F 33.1 °F 83% 29.97 in 10.0 mi ENE 9.2 mph - 0.00 in Rain Light Rain
5:53 AM 37.9 °F 31.5 °F 34.0 °F 86% 29.98 in 10.0 mi ESE 9.2 mph - 0.00 in   Overcast
6:53 AM 37.9 °F 34.4 °F 34.0 °F 86% 30.02 in 10.0 mi SE 4.6 mph - N/A   Overcast
7:53 AM 39.0 °F 36.8 °F 34.0 °F 82% 30.05 in 10.0 mi East 3.5 mph - N/A   Mostly Cloudy
8:53 AM 39.0 °F 34.8 °F 35.1 °F 86% 30.04 in 3.0 mi ENE 5.8 mph - 0.03 in Rain Light Rain
9:53 AM 39.9 °F - 36.0 °F 86% 30.06 in 8.0 mi Calm Calm - 0.04 in   Overcast
10:53 AM 39.9 °F 33.9 °F 37.0 °F 89% 30.06 in 8.0 mi ESE 9.2 mph - 0.02 in Rain Light Rain
11:53 AM 39.9 °F 34.5 °F 37.0 °F 89% 30.05 in 3.0 mi ESE 8.1 mph - 0.08 in Rain Rain
12:45 PM 41.0 °F 38.0 °F 37.4 °F 87% 30.03 in 5.0 mi Variable 4.6 mph - 0.07 in Rain Light Rain
12:53 PM 41.0 °F 39.0 °F 39.0 °F 93% 30.03 in 7.0 mi SE 3.5 mph - 0.07 in Rain Light Rain
1:20 PM 42.8 °F 39.3 °F 39.2 °F 87% 30.01 in 9.0 mi Variable 5.8 mph - 0.01 in   Overcast
1:53 PM 44.1 °F 40.8 °F 41.0 °F 89% 30.01 in 10.0 mi ESE 5.8 mph - 0.01 in   Overcast
2:10 PM 44.6 °F 43.1 °F 41.0 °F 87% 30.00 in 10.0 mi Variable 3.5 mph - N/A   Overcast
2:53 PM 48.9 °F - 42.1 °F 77% 29.99 in 10.0 mi ENE 5.8 mph - N/A   Mostly Cloudy
3:00 PM 48.2 °F - 42.8 °F 82% 29.99 in 10.0 mi SE 8.1 mph - N/A   Overcast
3:53 PM 50.0 °F - 41.0 °F 71% 29.97 in 10.0 mi SE 8.1 mph - N/A   Overcast
4:53 PM 50.0 °F - 39.9 °F 68% 29.97 in 10.0 mi SE 9.2 mph - N/A   Overcast
5:53 PM 48.9 °F - 41.0 °F 74% 29.98 in 10.0 mi SE 8.1 mph - N/A   Overcast
6:53 PM 48.0 °F - 41.0 °F 77% 29.98 in 10.0 mi SE 6.9 mph - N/A   Overcast
7:53 PM 48.0 °F - 41.0 °F 77% 29.99 in 10.0 mi Variable 6.9 mph - N/A   Overcast
8:53 PM 46.9 °F - 42.1 °F 83% 30.00 in 4.0 mi East 4.6 mph - 0.04 in Rain Light Rain
9:53 PM 46.9 °F - 43.0 °F 86% 29.99 in 10.0 mi East 6.9 mph - 0.01 in Rain Light Rain
10:53 PM 46.9 °F - 43.0 °F 86% 29.98 in 10.0 mi ESE 6.9 mph - 0.00 in   Overcast
11:17 PM 46.4 °F 43.5 °F 42.8 °F 87% 29.97 in 10.0 mi ESE 5.8 mph - N/A   Overcast
11:53 PM 46.9 °F - 43.0 °F 86% 29.97 in 10.0 mi Calm Calm - N/A   Overcast